Location: Feudal
(51.8839°N, 107.6105°W)
Time: 00:13:27
(UTC+00:00)

ISS - Visible Passes

Search period start: 27 January 2022 00:00
Search period end: 06 February 2022 00:00
Orbit: 413 x 422 km, 51.6° (Epoch: 26 January)

Date Brightness Start Highest point End Pass type
(mag) Time Alt. Az. Time Alt. Az. Time Alt. Az.
27 Jan -3.8 01:00:47 10° WSW 01:04:07 81° SSE 01:06:18 20° E visible
27 Jan -1.7 02:37:32 10° W 02:39:14 27° W 02:39:14 27° W visible
28 Jan -3.9 01:49:29 10° W 01:52:50 85° S 01:53:10 70° ESE visible
29 Jan -3.8 01:01:26 10° W 01:04:47 89° SSE 01:07:08 18° E visible
29 Jan -1.7 02:38:12 10° W 02:40:04 28° W 02:40:04 28° W visible
30 Jan -3.6 01:50:09 10° W 01:53:27 64° SSW 01:54:04 51° SE visible
31 Jan -3.7 01:02:05 10° W 01:05:26 77° S 01:08:08 15° ESE visible
31 Jan -1.7 02:39:00 10° W 02:41:05 25° WSW 02:41:05 25° WSW visible
01 Feb -2.6 01:50:50 10° W 01:53:59 39° SSW 01:55:14 27° SSE visible
02 Feb -3.1 01:02:45 10° W 01:06:00 52° SSW 01:09:15 10° ESE visible
02 Feb -1.1 02:40:14 10° WSW 02:42:14 15° SW 02:42:26 15° SW visible
03 Feb -1.5 01:51:45 10° W 01:54:21 21° SW 01:56:51 11° SSE visible
04 Feb -1.9 01:03:29 10° W 01:06:27 29° SSW 01:09:24 10° SSE visible
05 Feb -0.5 01:53:55 10° SW 01:54:34 10° SW 01:55:12 10° SSW visible
